Year,Month,Day,Hour,Minute,Value (Times are PST for temperature in C)
2014,05,01,00,00,11.50
2014,05,01,00,01,11.50
2014,05,01,00,02,11.40
2014,05,01,00,03,11.40
2014,05,01,00,04,11.40
2014,05,01,00,05,11.40
2014,05,01,00,06,11.40
2014,05,01,00,07,11.40
2014,05,01,00,08,11.30
2014,05,01,00,09,11.30
2014,05,01,00,10,11.30
2014,05,01,00,11,11.30
2014,05,01,00,12,11.30
2014,05,01,00,17,11.20
2014,05,01,00,18,11.20
2014,05,01,00,19,11.20
2014,05,01,00,20,11.20
2014,05,01,00,21,11.20
2014,05,01,00,22,11.20
2014,05,01,00,23,11.20
2014,05,01,00,24,11.20
2014,05,01,00,25,11.20
2014,05,01,00,26,11.20
2014,05,01,00,27,11.10
2014,05,01,00,28,11.10
2014,05,01,00,29,11.10
2014,05,01,00,30,11.10
2014,05,01,00,31,11.10
2014,05,01,00,32,11.10
2014,05,01,00,33,11.10
2014,05,01,00,34,11.10
2014,05,01,00,35,11.10
2014,05,01,00,36,11.10
2014,05,01,00,37,11.00
2014,05,01,00,38,11.00
2014,05,01,00,39,11.00
2014,05,01,00,40,11.00
2014,05,01,00,41,11.00
2014,05,01,00,42,11.00
2014,05,01,00,43,11.00
2014,05,01,00,44,11.00
2014,05,01,00,45,10.90
2014,05,01,00,46,11.00
2014,05,01,00,47,11.00
2014,05,01,00,48,11.10
2014,05,01,00,49,11.10
2014,05,01,00,50,11.10
2014,05,01,00,51,11.10
2014,05,01,00,52,11.10
2014,05,01,00,53,11.10
2014,05,01,00,54,11.10
2014,05,01,00,55,11.10
2014,05,01,00,56,11.00
2014,05,01,00,57,11.00
2014,05,01,00,58,11.00
2014,05,01,00,59,11.00
2014,05,01,01,00,11.00
2014,05,01,01,01,10.90
2014,05,01,01,02,10.90
2014,05,01,01,03,10.90
2014,05,01,01,04,10.90
2014,05,01,01,05,10.90
2014,05,01,01,06,10.90
2014,05,01,01,07,10.90
2014,05,01,01,08,10.90
2014,05,01,01,09,10.90
2014,05,01,01,10,10.90
2014,05,01,01,11,10.90
2014,05,01,01,12,10.90
2014,05,01,01,13,10.80
2014,05,01,01,14,10.80
2014,05,01,01,15,10.80
2014,05,01,01,16,10.80
2014,05,01,01,17,10.70
2014,05,01,01,18,10.70
2014,05,01,01,19,10.70
2014,05,01,01,20,10.70
2014,05,01,01,21,10.80
2014,05,01,01,22,10.80
2014,05,01,01,23,10.80
2014,05,01,01,24,10.80
2014,05,01,01,25,10.80
2014,05,01,01,26,10.80
2014,05,01,01,27,10.80
2014,05,01,01,28,10.80
2014,05,01,01,29,10.80
2014,05,01,01,30,10.80
2014,05,01,01,31,10.80
2014,05,01,01,32,10.80
2014,05,01,01,33,10.70
2014,05,01,01,34,10.70
2014,05,01,01,35,10.70
2014,05,01,01,36,10.70
2014,05,01,01,37,10.70
2014,05,01,01,38,10.60
2014,05,01,01,39,10.60
2014,05,01,01,40,10.60
2014,05,01,01,41,10.60
2014,05,01,01,42,10.60
2014,05,01,01,43,10.60
2014,05,01,01,44,10.60
2014,05,01,01,45,10.60
2014,05,01,01,46,10.60
2014,05,01,01,47,10.60
2014,05,01,01,48,10.50
2014,05,01,01,49,10.50
2014,05,01,01,50,10.50
2014,05,01,01,51,10.40
2014,05,01,01,52,10.40
2014,05,01,01,53,10.40
2014,05,01,01,54,10.40
2014,05,01,01,55,10.40
2014,05,01,01,56,10.30
2014,05,01,01,57,10.30
2014,05,01,01,58,10.20
2014,05,01,01,59,10.20
2014,05,01,02,00,10.20
2014,05,01,02,01,10.20
2014,05,01,02,02,10.20
2014,05,01,02,03,10.20
2014,05,01,02,04,10.20
2014,05,01,02,05,10.20
2014,05,01,02,06,10.20
2014,05,01,02,07,10.20
2014,05,01,02,08,10.20
2014,05,01,02,09,10.20
2014,05,01,02,10,10.10
2014,05,01,02,11,10.10
2014,05,01,02,12,10.10
2014,05,01,02,13,10.10
2014,05,01,02,14,10.10
2014,05,01,02,15,10.10
2014,05,01,02,16,10.10
2014,05,01,02,17,10.10
2014,05,01,02,18,10.10
2014,05,01,02,19,10.10
2014,05,01,02,20,10.10
2014,05,01,02,21,10.10
2014,05,01,02,22,10.00
2014,05,01,02,23,10.00
2014,05,01,02,24,10.00
2014,05,01,02,25,10.00
2014,05,01,02,26,10.00
2014,05,01,02,27,9.90
2014,05,01,02,28,9.90
2014,05,01,02,29,9.90
2014,05,01,02,30,9.90
2014,05,01,02,31,9.90
2014,05,01,02,32,9.90
2014,05,01,02,33,9.90
2014,05,01,02,34,9.90
2014,05,01,02,35,9.90
2014,05,01,02,36,9.80
2014,05,01,02,37,9.80
2014,05,01,02,38,9.80
2014,05,01,02,39,9.80
2014,05,01,02,40,9.80
2014,05,01,02,41,9.80
2014,05,01,02,42,9.80
2014,05,01,02,43,9.80
2014,05,01,02,44,9.80
2014,05,01,02,45,9.80
2014,05,01,02,46,9.70
2014,05,01,02,47,9.70
2014,05,01,02,48,9.70
2014,05,01,02,49,9.70
2014,05,01,02,50,9.60
2014,05,01,02,51,9.60
2014,05,01,02,52,9.60
2014,05,01,02,53,9.60
2014,05,01,02,54,9.60
2014,05,01,02,55,9.60
2014,05,01,02,56,9.60
2014,05,01,02,57,9.60
2014,05,01,02,58,9.50
2014,05,01,02,59,9.50
2014,05,01,03,00,9.50
2014,05,01,03,01,9.40
2014,05,01,03,02,9.40
2014,05,01,03,03,9.40
2014,05,01,03,04,9.40
2014,05,01,03,05,9.40
2014,05,01,03,06,9.40
2014,05,01,03,07,9.40
2014,05,01,03,08,9.40
2014,05,01,03,09,9.40
2014,05,01,03,10,9.40
2014,05,01,03,11,9.40
2014,05,01,03,12,9.40
2014,05,01,03,13,9.40
2014,05,01,03,14,9.40
2014,05,01,03,15,9.40
2014,05,01,03,16,9.40
2014,05,01,03,17,9.40
2014,05,01,03,18,9.40
2014,05,01,03,19,9.40
2014,05,01,03,20,9.40
2014,05,01,03,21,9.40
2014,05,01,03,22,9.40
2014,05,01,03,23,9.50
2014,05,01,03,24,9.50
2014,05,01,03,25,9.50
2014,05,01,03,26,9.50
2014,05,01,03,27,9.50
2014,05,01,03,28,9.50
2014,05,01,03,29,9.50
2014,05,01,03,30,9.50
2014,05,01,03,31,9.50
2014,05,01,03,32,9.50
2014,05,01,03,33,9.50
2014,05,01,03,34,9.50
2014,05,01,03,35,9.40
2014,05,01,03,36,9.40
2014,05,01,03,37,9.40
2014,05,01,03,38,9.50
2014,05,01,03,39,9.50
2014,05,01,03,40,9.50
2014,05,01,03,41,9.50
2014,05,01,03,42,9.50
2014,05,01,03,43,9.50
2014,05,01,03,44,9.50
2014,05,01,03,45,9.60
2014,05,01,03,46,9.60
2014,05,01,03,47,9.70
2014,05,01,03,48,9.70
2014,05,01,03,49,9.70
2014,05,01,03,50,9.80
2014,05,01,03,51,9.80
2014,05,01,03,52,9.90
2014,05,01,03,53,9.90
2014,05,01,03,54,9.90
2014,05,01,03,55,10.00
2014,05,01,03,56,10.00
2014,05,01,03,57,10.00
2014,05,01,03,58,10.00
2014,05,01,03,59,10.00
2014,05,01,04,00,10.00
2014,05,01,04,01,10.00
2014,05,01,04,02,9.90
2014,05,01,04,03,9.90
2014,05,01,04,04,9.90
2014,05,01,04,05,9.90
2014,05,01,04,06,9.90
2014,05,01,04,07,9.90
2014,05,01,04,08,9.90
2014,05,01,04,09,10.00
2014,05,01,04,10,10.00
2014,05,01,04,11,10.10
2014,05,01,04,12,10.10
2014,05,01,04,13,10.10
2014,05,01,04,14,10.10
2014,05,01,04,15,10.10
2014,05,01,04,16,10.10
2014,05,01,04,17,10.20
2014,05,01,04,18,10.20
2014,05,01,04,19,10.20
2014,05,01,04,20,10.30
2014,05,01,04,21,10.30
2014,05,01,04,22,10.40
2014,05,01,04,23,10.40
2014,05,01,04,24,10.50
2014,05,01,04,25,10.50
2014,05,01,04,26,10.50
2014,05,01,04,27,10.60
2014,05,01,04,28,10.60
2014,05,01,04,29,10.60
2014,05,01,04,30,10.60
2014,05,01,04,31,10.60
2014,05,01,04,32,10.60
2014,05,01,04,33,10.60
2014,05,01,04,34,10.60
2014,05,01,04,35,10.70
2014,05,01,04,36,10.60
2014,05,01,04,37,10.60
2014,05,01,04,38,10.60
2014,05,01,04,39,10.60
2014,05,01,04,40,10.60
2014,05,01,04,41,10.60
2014,05,01,04,42,10.60
2014,05,01,04,43,10.60
2014,05,01,04,44,10.50
2014,05,01,04,45,10.50
2014,05,01,04,46,10.50
2014,05,01,04,47,10.40
2014,05,01,04,48,10.40
2014,05,01,04,49,10.40
2014,05,01,04,50,10.40
2014,05,01,04,51,10.40
2014,05,01,04,52,10.40
2014,05,01,04,53,10.40
2014,05,01,04,54,10.30
2014,05,01,04,55,10.30
2014,05,01,04,56,10.30
2014,05,01,04,57,10.30
2014,05,01,04,58,10.30
2014,05,01,04,59,10.30
2014,05,01,05,00,10.30
2014,05,01,05,01,10.30
2014,05,01,05,02,10.40
2014,05,01,05,03,10.40
2014,05,01,05,04,10.40
2014,05,01,05,05,10.40
2014,05,01,05,06,10.40
2014,05,01,05,07,10.40
2014,05,01,05,08,10.40
2014,05,01,05,09,10.40
2014,05,01,05,10,10.40
2014,05,01,05,11,10.40
2014,05,01,05,12,10.40
2014,05,01,05,13,10.50
2014,05,01,05,14,10.50
2014,05,01,05,15,10.50
2014,05,01,05,16,10.50
2014,05,01,05,17,10.60
2014,05,01,05,18,10.60
2014,05,01,05,19,10.60
2014,05,01,05,20,10.60
2014,05,01,05,21,10.60
2014,05,01,05,22,10.60
2014,05,01,05,23,10.60
2014,05,01,05,24,10.50
2014,05,01,05,25,10.50
2014,05,01,05,26,10.50
2014,05,01,05,27,10.40
2014,05,01,05,28,10.40
2014,05,01,05,29,10.40
2014,05,01,05,30,10.30
2014,05,01,05,31,10.30
2014,05,01,05,32,10.20
2014,05,01,05,33,10.20
2014,05,01,05,34,10.10
2014,05,01,05,35,10.10
2014,05,01,05,36,10.10
2014,05,01,05,37,10.00
2014,05,01,05,38,10.00
2014,05,01,05,39,9.90
2014,05,01,05,40,9.90
2014,05,01,05,41,9.80
2014,05,01,05,42,9.80
2014,05,01,05,43,9.80
2014,05,01,05,44,9.80
2014,05,01,05,45,9.70
2014,05,01,05,46,9.70
2014,05,01,05,47,9.70
2014,05,01,05,48,9.60
2014,05,01,05,49,9.60
2014,05,01,05,50,9.60
2014,05,01,05,51,9.60
2014,05,01,05,52,9.60
2014,05,01,05,53,9.60
2014,05,01,05,54,9.60
2014,05,01,05,55,9.60
2014,05,01,05,56,9.50
2014,05,01,05,57,9.50
2014,05,01,05,58,9.50
2014,05,01,05,59,9.50
2014,05,01,06,00,9.50
2014,05,01,06,01,9.50
2014,05,01,06,02,9.40
2014,05,01,06,03,9.40
2014,05,01,06,04,9.40
2014,05,01,06,05,9.40
2014,05,01,06,06,9.30
2014,05,01,06,07,9.30
2014,05,01,06,08,9.30
2014,05,01,06,09,9.30
2014,05,01,06,10,9.20
2014,05,01,06,11,9.20
2014,05,01,06,12,9.20
2014,05,01,06,13,9.20
2014,05,01,06,14,9.20
2014,05,01,06,15,9.20
2014,05,01,06,16,9.20
2014,05,01,06,17,9.30
2014,05,01,06,18,9.40
2014,05,01,06,19,9.40
2014,05,01,06,20,9.40
2014,05,01,06,21,9.40
2014,05,01,06,22,9.40
2014,05,01,06,23,9.40
2014,05,01,06,24,9.40
2014,05,01,06,25,9.40
2014,05,01,06,26,9.30
2014,05,01,06,27,9.30
2014,05,01,06,28,9.30
2014,05,01,06,29,9.30
2014,05,01,06,30,9.30
2014,05,01,06,31,9.30
2014,05,01,06,32,9.30
2014,05,01,06,33,9.30
2014,05,01,06,34,9.30
2014,05,01,06,35,9.30
2014,05,01,06,36,9.30
2014,05,01,06,37,9.30
2014,05,01,06,38,9.30
2014,05,01,06,39,9.30
2014,05,01,06,40,9.30
2014,05,01,06,41,9.30
2014,05,01,06,42,9.30
2014,05,01,06,43,9.30
2014,05,01,06,44,9.30
2014,05,01,06,45,9.30
2014,05,01,06,46,9.40
2014,05,01,06,47,9.40
2014,05,01,06,48,9.40
2014,05,01,06,49,9.50
2014,05,01,06,50,9.50
2014,05,01,06,51,9.50
2014,05,01,06,52,9.50
2014,05,01,06,53,9.50
2014,05,01,06,54,9.50
2014,05,01,06,55,9.50
2014,05,01,06,56,9.50
2014,05,01,06,57,9.50
2014,05,01,06,58,9.50
2014,05,01,06,59,9.50
2014,05,01,07,00,9.40
2014,05,01,07,01,9.40
2014,05,01,07,02,9.40
2014,05,01,07,03,9.40
2014,05,01,07,04,9.40
2014,05,01,07,05,9.40
2014,05,01,07,06,9.40
2014,05,01,07,07,9.40
2014,05,01,07,08,9.40
2014,05,01,07,09,9.40
2014,05,01,07,10,9.40
2014,05,01,07,11,9.50
2014,05,01,07,12,9.50
2014,05,01,07,13,9.50
2014,05,01,07,14,9.50
2014,05,01,07,15,9.60
2014,05,01,07,16,9.60
2014,05,01,07,17,9.60
2014,05,01,07,18,9.60
2014,05,01,07,19,9.60
2014,05,01,07,20,9.70
2014,05,01,07,21,9.70
2014,05,01,07,22,9.70
2014,05,01,07,23,9.80
2014,05,01,07,24,9.80
2014,05,01,07,25,9.90
2014,05,01,07,26,10.00
2014,05,01,07,27,10.10
2014,05,01,07,28,10.20
2014,05,01,07,29,10.30
2014,05,01,07,30,10.40
2014,05,01,07,31,10.50
2014,05,01,07,32,10.60
2014,05,01,07,33,10.70
2014,05,01,07,34,10.80
2014,05,01,07,35,10.90
2014,05,01,07,36,11.00
2014,05,01,07,37,11.10
2014,05,01,07,38,11.20
2014,05,01,07,39,11.30
2014,05,01,07,40,11.30
2014,05,01,07,41,11.40
2014,05,01,07,42,11.40
2014,05,01,07,43,11.50
2014,05,01,07,44,11.60
2014,05,01,07,45,11.60
2014,05,01,07,46,11.70
2014,05,01,07,47,11.80
2014,05,01,07,48,11.90
2014,05,01,07,49,12.00
2014,05,01,07,50,12.10
2014,05,01,07,51,12.20
2014,05,01,07,52,12.30
2014,05,01,07,53,12.30
2014,05,01,07,54,12.40
2014,05,01,07,55,12.50
2014,05,01,07,56,12.50
2014,05,01,07,57,12.60
2014,05,01,07,58,12.70
2014,05,01,07,59,12.80
2014,05,01,08,00,12.80
2014,05,01,08,01,12.90
2014,05,01,08,02,13.00
2014,05,01,08,03,13.10
2014,05,01,08,04,13.20
2014,05,01,08,05,13.30
2014,05,01,08,06,13.40
2014,05,01,08,07,13.40
2014,05,01,08,08,13.40
2014,05,01,08,09,13.50
2014,05,01,08,10,13.50
2014,05,01,08,11,13.60
2014,05,01,08,12,13.70
2014,05,01,08,13,13.80
2014,05,01,08,14,13.80
2014,05,01,08,15,13.90
2014,05,01,08,16,13.90
2014,05,01,08,17,14.00
2014,05,01,08,18,14.00
2014,05,01,08,19,14.10
2014,05,01,08,20,14.20
2014,05,01,08,21,14.20
2014,05,01,08,22,14.30
2014,05,01,08,23,14.30
2014,05,01,08,24,14.40
2014,05,01,08,25,14.50
2014,05,01,08,26,14.50
2014,05,01,08,27,14.60
2014,05,01,08,28,14.70
2014,05,01,08,29,14.80
2014,05,01,08,30,14.80
2014,05,01,08,31,14.80
2014,05,01,08,32,14.80
2014,05,01,08,33,14.80
2014,05,01,08,34,14.80
2014,05,01,08,35,14.80
2014,05,01,08,36,14.90
2014,05,01,08,37,14.90
2014,05,01,08,38,14.90
2014,05,01,08,39,14.90
2014,05,01,08,40,14.90
2014,05,01,08,41,14.90
2014,05,01,08,42,14.90
2014,05,01,08,43,14.90
2014,05,01,08,44,14.90
2014,05,01,08,45,14.80
2014,05,01,08,46,14.80
2014,05,01,08,47,14.80
2014,05,01,08,48,14.80
2014,05,01,08,49,14.70
2014,05,01,08,50,14.70
2014,05,01,08,51,14.70
2014,05,01,08,52,14.70
2014,05,01,08,53,14.70
2014,05,01,08,54,14.80
2014,05,01,08,55,14.80
2014,05,01,08,56,14.80
2014,05,01,08,57,14.90
2014,05,01,08,58,14.90
2014,05,01,08,59,15.00
2014,05,01,09,00,15.00
2014,05,01,09,01,15.10
2014,05,01,09,02,15.20
2014,05,01,09,03,15.30
2014,05,01,09,04,15.40
2014,05,01,09,05,15.40
2014,05,01,09,06,15.50
2014,05,01,09,07,15.60
2014,05,01,09,08,15.70
2014,05,01,09,09,15.70
2014,05,01,09,10,15.80
2014,05,01,09,11,15.80
2014,05,01,09,12,15.90
2014,05,01,09,13,15.90
2014,05,01,09,14,16.00
2014,05,01,09,15,16.00
2014,05,01,09,16,16.10
2014,05,01,09,17,16.20
2014,05,01,09,18,16.30
2014,05,01,09,19,16.40
2014,05,01,09,20,16.50
2014,05,01,09,21,16.60
2014,05,01,09,22,16.60
2014,05,01,09,23,16.70
2014,05,01,09,24,16.80
2014,05,01,09,25,16.90
2014,05,01,09,26,17.00
2014,05,01,09,27,17.10
2014,05,01,09,28,17.30
2014,05,01,09,29,17.40
2014,05,01,09,30,17.40
2014,05,01,09,31,17.50
2014,05,01,09,32,17.60
2014,05,01,09,33,17.70
2014,05,01,09,34,17.70
2014,05,01,09,35,17.80
2014,05,01,09,36,17.80
2014,05,01,09,37,17.90
2014,05,01,09,38,18.00
2014,05,01,09,39,18.20
2014,05,01,09,40,18.30
2014,05,01,09,41,18.40
2014,05,01,09,42,18.60
2014,05,01,09,43,18.70
2014,05,01,09,44,18.80
2014,05,01,09,45,18.90
2014,05,01,09,46,19.00
2014,05,01,09,47,19.00
2014,05,01,09,48,19.10
2014,05,01,09,49,19.20
2014,05,01,09,50,19.20
2014,05,01,09,51,19.30
2014,05,01,09,52,19.40
2014,05,01,09,53,19.40
2014,05,01,09,54,19.50
2014,05,01,09,55,19.60
2014,05,01,09,56,19.80
2014,05,01,09,57,19.80
2014,05,01,09,58,20.00
2014,05,01,09,59,20.10
2014,05,01,10,00,20.30
2014,05,01,10,01,20.40
2014,05,01,10,02,20.40
2014,05,01,10,03,20.40
2014,05,01,10,04,20.30
2014,05,01,10,05,20.30
2014,05,01,10,06,20.40
2014,05,01,10,07,20.40
2014,05,01,10,08,20.40
2014,05,01,10,09,20.40
2014,05,01,10,10,20.50
2014,05,01,10,11,20.60
2014,05,01,10,12,20.60
2014,05,01,10,13,20.70
2014,05,01,10,14,20.80
2014,05,01,10,15,20.80
2014,05,01,10,16,20.90
2014,05,01,10,17,20.90
2014,05,01,10,18,21.00
2014,05,01,10,19,21.10
2014,05,01,10,20,21.10
2014,05,01,10,21,21.10
2014,05,01,10,22,21.10
2014,05,01,10,23,21.10
2014,05,01,10,24,21.20
2014,05,01,10,25,21.30
2014,05,01,10,26,21.30
2014,05,01,10,27,21.40
2014,05,01,10,28,21.40
2014,05,01,10,29,21.40
2014,05,01,10,30,21.40
2014,05,01,10,31,21.50
2014,05,01,10,32,21.50
2014,05,01,10,33,21.60
2014,05,01,10,34,21.60
2014,05,01,10,35,21.60
2014,05,01,10,36,21.60
2014,05,01,10,37,21.60
2014,05,01,10,38,21.60
2014,05,01,10,39,21.70
2014,05,01,10,40,21.60
2014,05,01,10,41,21.60
2014,05,01,10,42,21.40
2014,05,01,10,43,21.30
2014,05,01,10,44,21.20
2014,05,01,10,45,21.20
2014,05,01,10,46,21.20
2014,05,01,10,47,21.20
2014,05,01,10,48,21.20
2014,05,01,10,49,21.30
2014,05,01,10,50,21.30
2014,05,01,10,51,21.30
2014,05,01,10,52,21.30
2014,05,01,10,53,21.30
2014,05,01,10,54,21.30
2014,05,01,10,55,21.30
2014,05,01,10,56,21.30
2014,05,01,10,57,21.20
2014,05,01,10,58,21.20
2014,05,01,10,59,21.20
2014,05,01,11,00,21.10
2014,05,01,11,01,21.10
2014,05,01,11,02,21.10
2014,05,01,11,03,21.10
2014,05,01,11,04,21.10
2014,05,01,11,05,21.10
2014,05,01,11,06,21.10
2014,05,01,11,07,21.20
2014,05,01,11,08,21.20
2014,05,01,11,09,21.30
2014,05,01,11,10,21.30
2014,05,01,11,11,21.30
2014,05,01,11,12,21.30
2014,05,01,11,13,21.20
2014,05,01,11,14,21.20
2014,05,01,11,15,21.20
2014,05,01,11,16,21.20
2014,05,01,11,17,21.20
2014,05,01,11,18,21.30
2014,05,01,11,19,21.30
2014,05,01,11,20,21.30
2014,05,01,11,21,21.40
2014,05,01,11,22,21.40
2014,05,01,11,23,21.40
2014,05,01,11,24,21.50
2014,05,01,11,25,21.50
2014,05,01,11,26,21.60
2014,05,01,11,27,21.60
2014,05,01,11,28,21.70
2014,05,01,11,29,21.70
2014,05,01,11,30,21.60
2014,05,01,11,31,21.50
2014,05,01,11,32,21.30
2014,05,01,11,33,21.10
2014,05,01,11,34,21.00
2014,05,01,11,35,20.80
2014,05,01,11,36,20.70
2014,05,01,11,37,20.60
2014,05,01,11,38,20.50
2014,05,01,11,39,20.30
2014,05,01,11,40,20.10
2014,05,01,11,41,20.00
2014,05,01,11,42,19.80
2014,05,01,11,43,19.70
2014,05,01,11,44,19.60
2014,05,01,11,45,19.40
2014,05,01,11,46,19.30
2014,05,01,11,47,19.20
2014,05,01,11,48,19.20
2014,05,01,11,49,19.20
2014,05,01,11,50,19.30
2014,05,01,11,51,19.30
2014,05,01,11,52,19.30
2014,05,01,11,53,19.30
2014,05,01,11,54,19.40
2014,05,01,11,55,19.30
2014,05,01,11,56,19.30
2014,05,01,11,57,19.30
2014,05,01,11,58,19.30
2014,05,01,11,59,19.30
2014,05,01,12,00,19.30
2014,05,01,12,01,19.30
2014,05,01,12,02,19.30
2014,05,01,12,03,19.30
2014,05,01,12,04,19.20
2014,05,01,12,05,19.20
2014,05,01,12,06,19.20
2014,05,01,12,07,19.20
2014,05,01,12,08,19.20
2014,05,01,12,09,19.20
2014,05,01,12,10,19.30
2014,05,01,12,11,19.30
2014,05,01,12,12,19.40
2014,05,01,12,13,19.40
2014,05,01,12,14,19.50
2014,05,01,12,15,19.60
2014,05,01,12,16,19.70
2014,05,01,12,17,19.80
2014,05,01,12,18,19.80
2014,05,01,12,19,19.90
2014,05,01,12,20,20.00
2014,05,01,12,21,20.00
2014,05,01,12,22,20.10
2014,05,01,12,23,20.20
2014,05,01,12,24,20.30
2014,05,01,12,25,20.40
2014,05,01,12,26,20.60
2014,05,01,12,27,20.70
2014,05,01,12,28,20.80
2014,05,01,12,29,20.90
2014,05,01,12,30,21.00
2014,05,01,12,31,21.10
2014,05,01,12,32,21.10
2014,05,01,12,33,21.10
2014,05,01,12,34,21.10
2014,05,01,12,35,21.10
2014,05,01,12,36,21.00
2014,05,01,12,37,20.90
2014,05,01,12,38,20.80
2014,05,01,12,39,20.80
2014,05,01,12,40,20.70
2014,05,01,12,41,20.70
2014,05,01,12,42,20.60
2014,05,01,12,43,20.60
2014,05,01,12,44,20.60
2014,05,01,12,45,20.60
2014,05,01,12,46,20.60
2014,05,01,12,47,20.60
2014,05,01,12,48,20.70
2014,05,01,12,49,20.70
2014,05,01,12,50,20.70
2014,05,01,12,51,20.70
2014,05,01,12,52,20.70
2014,05,01,12,53,20.70
2014,05,01,12,54,20.70
2014,05,01,12,55,20.80
2014,05,01,12,56,20.80
2014,05,01,12,57,20.90
2014,05,01,12,58,21.00
2014,05,01,12,59,21.10
2014,05,01,13,00,21.10
2014,05,01,13,01,21.10
2014,05,01,13,02,21.20
2014,05,01,13,03,21.20
2014,05,01,13,04,21.20
2014,05,01,13,05,21.30
2014,05,01,13,06,21.30
2014,05,01,13,07,21.30
2014,05,01,13,08,21.30
2014,05,01,13,09,21.30
2014,05,01,13,10,21.30
2014,05,01,13,11,21.30
2014,05,01,13,12,21.30
2014,05,01,13,13,21.30
2014,05,01,13,14,21.30
2014,05,01,13,15,21.40
2014,05,01,13,16,21.40
2014,05,01,13,17,21.50
2014,05,01,13,18,21.60
2014,05,01,13,19,21.60
2014,05,01,13,20,21.60
2014,05,01,13,21,21.60
2014,05,01,13,22,21.50
2014,05,01,13,23,21.50
2014,05,01,13,24,21.40
2014,05,01,13,25,21.40
2014,05,01,13,26,21.40
2014,05,01,13,27,21.40
2014,05,01,13,28,21.40
2014,05,01,13,29,21.50
2014,05,01,13,30,21.60
2014,05,01,13,31,21.60
2014,05,01,13,32,21.70
2014,05,01,13,33,21.80
2014,05,01,13,34,21.90
2014,05,01,13,35,22.00
2014,05,01,13,36,22.10
2014,05,01,13,37,22.20
2014,05,01,13,38,22.30
2014,05,01,13,39,22.40
2014,05,01,13,40,22.40
2014,05,01,13,41,22.40
2014,05,01,13,42,22.40
2014,05,01,13,43,22.40
2014,05,01,13,44,22.50
2014,05,01,13,45,22.50
2014,05,01,13,46,22.50
2014,05,01,13,47,22.50
2014,05,01,13,48,22.60
2014,05,01,13,49,22.60
2014,05,01,13,50,22.70
2014,05,01,13,51,22.70
2014,05,01,13,52,22.80
2014,05,01,13,53,22.80
2014,05,01,13,54,22.70
2014,05,01,13,55,22.70
2014,05,01,13,56,22.70
2014,05,01,13,57,22.70
2014,05,01,13,58,22.70
2014,05,01,13,59,22.60
2014,05,01,14,00,22.60
2014,05,01,14,01,22.50
2014,05,01,14,02,22.60
2014,05,01,14,03,22.60
2014,05,01,14,04,22.60
2014,05,01,14,05,22.60
2014,05,01,14,06,22.60
2014,05,01,14,07,22.50
2014,05,01,14,08,22.50
2014,05,01,14,09,22.50
2014,05,01,14,10,22.50
2014,05,01,14,11,22.50
2014,05,01,14,12,22.50
2014,05,01,14,13,22.50
2014,05,01,14,14,22.40
2014,05,01,14,15,22.50
2014,05,01,14,16,22.50
2014,05,01,14,17,22.50
2014,05,01,14,18,22.50
2014,05,01,14,19,22.60
2014,05,01,14,20,22.60
2014,05,01,14,21,22.70
2014,05,01,14,22,22.70
2014,05,01,14,23,22.80
2014,05,01,14,24,22.80
2014,05,01,14,25,22.90
2014,05,01,14,26,22.80
2014,05,01,14,27,22.80
2014,05,01,14,28,22.70
2014,05,01,14,29,22.50
2014,05,01,14,30,22.20
2014,05,01,14,31,21.90
2014,05,01,14,32,21.50
2014,05,01,14,33,21.20
2014,05,01,14,34,21.10
2014,05,01,14,35,21.00
2014,05,01,14,36,20.90
2014,05,01,14,37,21.00
2014,05,01,14,38,21.10
2014,05,01,14,39,21.30
2014,05,01,14,40,21.40
2014,05,01,14,41,21.40
2014,05,01,14,42,21.50
2014,05,01,14,43,21.50
2014,05,01,14,44,21.60
2014,05,01,14,45,21.80
2014,05,01,14,46,21.90
2014,05,01,14,47,22.10
2014,05,01,14,48,22.20
2014,05,01,14,49,22.40
2014,05,01,14,50,22.40
2014,05,01,14,51,22.30
2014,05,01,14,52,22.20
2014,05,01,14,53,22.10
2014,05,01,14,54,22.10
2014,05,01,14,55,22.20
2014,05,01,14,56,22.20
2014,05,01,14,57,22.20
2014,05,01,14,58,22.30
2014,05,01,14,59,22.40
2014,05,01,15,00,22.40
2014,05,01,15,01,22.40
2014,05,01,15,02,22.40
2014,05,01,15,03,22.40
2014,05,01,15,04,22.30
2014,05,01,15,05,22.20
2014,05,01,15,06,22.10
2014,05,01,15,07,22.00
2014,05,01,15,08,21.90
2014,05,01,15,09,21.90
2014,05,01,15,10,21.90
2014,05,01,15,11,21.90
2014,05,01,15,12,21.90
2014,05,01,15,13,21.90
2014,05,01,15,14,21.90
2014,05,01,15,15,22.00
2014,05,01,15,16,22.00
2014,05,01,15,17,22.10
2014,05,01,15,18,22.10
2014,05,01,15,19,22.10
2014,05,01,15,20,22.20
2014,05,01,15,21,22.20
2014,05,01,15,22,22.20
2014,05,01,15,23,22.20
2014,05,01,15,24,22.20
2014,05,01,15,25,22.30
2014,05,01,15,26,22.30
2014,05,01,15,27,22.30
2014,05,01,15,28,22.30
2014,05,01,15,29,22.30
2014,05,01,15,30,22.30
2014,05,01,15,31,22.30
2014,05,01,15,32,22.30
2014,05,01,15,33,22.30
2014,05,01,15,34,22.30
2014,05,01,15,35,22.30
2014,05,01,15,36,22.40
2014,05,01,15,37,22.50
2014,05,01,15,38,22.50
2014,05,01,15,39,22.50
2014,05,01,15,40,22.50
2014,05,01,15,41,22.60
2014,05,01,15,42,22.70
2014,05,01,15,43,22.80
2014,05,01,15,44,22.80
2014,05,01,15,45,22.90
2014,05,01,15,46,22.90
2014,05,01,15,47,22.90
2014,05,01,15,48,22.90
2014,05,01,15,49,22.90
2014,05,01,15,50,22.90
2014,05,01,15,51,22.90
2014,05,01,15,52,22.90
2014,05,01,15,53,23.00
2014,05,01,15,54,23.00
2014,05,01,15,55,23.10
2014,05,01,15,56,23.20
2014,05,01,15,57,23.40
2014,05,01,15,58,23.50
2014,05,01,15,59,23.70
2014,05,01,16,00,23.80
2014,05,01,16,01,23.90
2014,05,01,16,02,24.00
2014,05,01,16,03,24.00
2014,05,01,16,04,24.10
2014,05,01,16,05,24.20
2014,05,01,16,06,24.20
2014,05,01,16,07,24.20
2014,05,01,16,08,24.20
2014,05,01,16,09,24.10
2014,05,01,16,10,24.10
2014,05,01,16,11,24.10
2014,05,01,16,12,24.10
2014,05,01,16,13,24.00
2014,05,01,16,14,23.90
2014,05,01,16,15,23.80
2014,05,01,16,16,23.80
2014,05,01,16,17,23.70
2014,05,01,16,18,23.60
2014,05,01,16,19,23.60
2014,05,01,16,20,23.60
2014,05,01,16,21,23.50
2014,05,01,16,22,23.50
2014,05,01,16,23,23.50
2014,05,01,16,24,23.40
2014,05,01,16,25,23.40
2014,05,01,16,26,23.40
2014,05,01,16,27,23.30
2014,05,01,16,28,23.30
2014,05,01,16,29,23.20
2014,05,01,16,30,23.20
2014,05,01,16,31,23.00
2014,05,01,16,32,22.90
2014,05,01,16,33,22.80
2014,05,01,16,34,22.80
2014,05,01,16,35,22.80
2014,05,01,16,36,22.80
2014,05,01,16,37,22.70
2014,05,01,16,38,22.70
2014,05,01,16,39,22.70
2014,05,01,16,40,22.70
2014,05,01,16,41,22.70
2014,05,01,16,42,22.80
2014,05,01,16,43,22.80
2014,05,01,16,44,22.90
2014,05,01,16,45,22.90
2014,05,01,16,46,22.90
2014,05,01,16,47,22.90
2014,05,01,16,48,22.90
2014,05,01,16,49,22.90
2014,05,01,16,50,22.90
2014,05,01,16,51,23.00
2014,05,01,16,52,23.00
2014,05,01,16,53,22.90
2014,05,01,16,54,23.00
2014,05,01,16,55,23.00
2014,05,01,16,56,23.10
2014,05,01,16,57,23.10
2014,05,01,16,58,23.20
2014,05,01,16,59,23.20
2014,05,01,17,00,23.30
2014,05,01,17,01,23.30
2014,05,01,17,02,23.30
2014,05,01,17,03,23.30
2014,05,01,17,04,23.20
2014,05,01,17,05,23.10
2014,05,01,17,06,23.10
2014,05,01,17,07,23.00
2014,05,01,17,08,22.80
2014,05,01,17,09,22.70
2014,05,01,17,10,22.50
2014,05,01,17,11,22.30
2014,05,01,17,12,22.20
2014,05,01,17,13,22.00
2014,05,01,17,14,21.90
2014,05,01,17,15,21.80
2014,05,01,17,16,21.70
2014,05,01,17,17,21.70
2014,05,01,17,18,21.70
2014,05,01,17,19,21.70
2014,05,01,17,20,21.70
2014,05,01,17,21,21.70
2014,05,01,17,22,21.70
2014,05,01,17,23,21.80
2014,05,01,17,24,21.80
2014,05,01,17,25,21.80
2014,05,01,17,26,21.90
2014,05,01,17,27,21.90
2014,05,01,17,28,22.00
2014,05,01,17,29,22.10
2014,05,01,17,30,22.10
2014,05,01,17,31,22.00
2014,05,01,17,32,22.00